SKW6413 KTUS-KPHX

Flight info

Callsign SKW6413
Flight time 0h 24m
Altitude 16000
Route WLDKT4 WLDKT HOTTT PINNG1
Aircraft CRJ9/M-SDFGIRWY/S

Departure

Time 2026-04-23 22:31
Airport Tucson International Airport (KTUS)

Arrival

Time 2026-04-23 22:56
Airport Phoenix Sky Harbor International Airport (KPHX)
Time Latitude Longitude Altitude Speed Heading
2026-04-23 21:57 32.12102 -110.94029 2591 ft 0 kts 82°
2026-04-23 22:16 32.12102 -110.94053 2585 ft 4 kts 103°
2026-04-23 22:17 32.12116 -110.94074 2584 ft 4 kts 153°
2026-04-23 22:17 32.12137 -110.94076 2581 ft 2 kts 197°
2026-04-23 22:17 32.12139 -110.94075 2581 ft 1 kts 197°
2026-04-23 22:22 32.12138 -110.94076 2581 ft 0 kts 197°
2026-04-23 22:23 32.12135 -110.94077 2581 ft 1 kts 197°
2026-04-23 22:23 32.12111 -110.94085 2581 ft 6 kts 195°
2026-04-23 22:23 32.12065 -110.94093 2584 ft 7 kts 183°
2026-04-23 22:23 32.12051 -110.94093 2589 ft 7 kts 183°
2026-04-23 22:24 32.12030 -110.94095 2587 ft 8 kts 182°
2026-04-23 22:24 32.11963 -110.94095 2585 ft 10 kts 168°
2026-04-23 22:24 32.11912 -110.94049 2590 ft 8 kts 136°
2026-04-23 22:24 32.11875 -110.94006 2591 ft 7 kts 135°
2026-04-23 22:25 32.11828 -110.93950 2588 ft 16 kts 135°
2026-04-23 22:25 32.11735 -110.93841 2592 ft 23 kts 135°
2026-04-23 22:25 32.11617 -110.93702 2601 ft 23 kts 135°
2026-04-23 22:25 32.11535 -110.93607 2604 ft 21 kts 135°
2026-04-23 22:26 32.11430 -110.93483 2612 ft 27 kts 135°
2026-04-23 22:26 32.11267 -110.93291 2617 ft 33 kts 135°
2026-04-23 22:26 32.11109 -110.93106 2619 ft 32 kts 135°
2026-04-23 22:26 32.10960 -110.92930 2624 ft 29 kts 134°
2026-04-23 22:27 32.10901 -110.92861 2626 ft 28 kts 135°
2026-04-23 22:27 32.10813 -110.92759 2632 ft 25 kts 135°
2026-04-23 22:27 32.10695 -110.92619 2638 ft 23 kts 135°
2026-04-23 22:27 32.10567 -110.92470 2644 ft 29 kts 135°
2026-04-23 22:28 32.10434 -110.92313 2647 ft 21 kts 135°
2026-04-23 22:28 32.10355 -110.92220 2649 ft 14 kts 135°
2026-04-23 22:28 32.10298 -110.92186 2649 ft 5 kts 208°
2026-04-23 22:28 32.10287 -110.92197 2649 ft 0 kts 224°
2026-04-23 22:29 32.10273 -110.92214 2650 ft 7 kts 224°
2026-04-23 22:29 32.10238 -110.92254 2650 ft 7 kts 224°
2026-04-23 22:29 32.10216 -110.92296 2651 ft 5 kts 283°
2026-04-23 22:30 32.10227 -110.92314 2651 ft 0 kts 314°
2026-04-23 22:30 32.10247 -110.92339 2650 ft 21 kts 315°
2026-04-23 22:30 32.10502 -110.92639 2643 ft 82 kts 315°
2026-04-23 22:31 32.11038 -110.93266 2620 ft 133 kts 315°
2026-04-23 22:31 32.11790 -110.94137 2713 ft 162 kts 312°
2026-04-23 22:31 32.12615 -110.95098 3300 ft 169 kts 312°
2026-04-23 22:31 32.13441 -110.96041 3931 ft 170 kts 314°
2026-04-23 22:32 32.14337 -110.97100 4093 ft 197 kts 313°
2026-04-23 22:32 32.15324 -110.98278 4702 ft 200 kts 313°
2026-04-23 22:32 32.16370 -110.99517 5297 ft 225 kts 313°
2026-04-23 22:32 32.17349 -111.00703 5842 ft 244 kts 314°
2026-04-23 22:33 32.18582 -111.02180 6549 ft 260 kts 314°
2026-04-23 22:33 32.19887 -111.03723 7384 ft 266 kts 313°
2026-04-23 22:33 32.21226 -111.05280 8315 ft 270 kts 314°
2026-04-23 22:33 32.22896 -111.06344 9289 ft 283 kts 343°
2026-04-23 22:34 32.24898 -111.06542 10212 ft 294 kts 355°
2026-04-23 22:34 32.26941 -111.06384 10972 ft 306 kts 360°
2026-04-23 22:34 32.29137 -111.06084 11378 ft 327 kts
2026-04-23 22:34 32.31459 -111.05742 11878 ft 344 kts
2026-04-23 22:35 32.33884 -111.05379 12440 ft 358 kts
2026-04-23 22:35 32.36379 -111.05054 13236 ft 363 kts
2026-04-23 22:35 32.38912 -111.04759 14054 ft 366 kts 359°
2026-04-23 22:35 32.41432 -111.04473 14891 ft 369 kts 360°
2026-04-23 22:36 32.44017 -111.04175 15456 ft 374 kts 360°
2026-04-23 22:36 32.46602 -111.03875 15713 ft 376 kts 359°
2026-04-23 22:36 32.49225 -111.03569 15822 ft 380 kts 360°
2026-04-23 22:36 32.51841 -111.03439 15850 ft 372 kts 347°
2026-04-23 22:37 32.54257 -111.04317 15875 ft 358 kts 329°
2026-04-23 22:37 32.56420 -111.05720 15902 ft 351 kts 323°
2026-04-23 22:37 32.58497 -111.07238 15897 ft 349 kts 322°
2026-04-23 22:37 32.60524 -111.08794 15912 ft 347 kts 321°
2026-04-23 22:38 32.62535 -111.10381 15912 ft 346 kts 321°
2026-04-23 22:38 32.64539 -111.11954 15930 ft 345 kts 321°
2026-04-23 22:38 32.66547 -111.13520 15909 ft 345 kts 321°
2026-04-23 22:38 32.68560 -111.15069 15902 ft 344 kts 321°
2026-04-23 22:39 32.70552 -111.16587 15910 ft 344 kts 322°
2026-04-23 22:39 32.72558 -111.18124 15905 ft 343 kts 321°
2026-04-23 22:39 32.74381 -111.19893 15899 ft 335 kts 309°
2026-04-23 22:39 32.75926 -111.21949 15868 ft 333 kts 306°
2026-04-23 22:40 32.77314 -111.24112 15615 ft 326 kts 301°
2026-04-23 22:40 32.78564 -111.26342 15365 ft 319 kts 299°
2026-04-23 22:40 32.80945 -111.30693 14872 ft 310 kts 299°
2026-04-23 22:41 32.82122 -111.32853 14625 ft 312 kts 298°
2026-04-23 22:41 32.83295 -111.34986 14390 ft 313 kts 299°
2026-04-23 22:41 32.84501 -111.37148 14165 ft 314 kts 300°
2026-04-23 22:41 32.85710 -111.39293 13950 ft 309 kts 300°
2026-04-23 22:42 32.86888 -111.41375 13726 ft 298 kts 300°
2026-04-23 22:42 32.88029 -111.43402 13459 ft 290 kts 299°
2026-04-23 22:42 32.89137 -111.45375 13188 ft 283 kts 300°
2026-04-23 22:42 32.90222 -111.47303 12922 ft 277 kts 300°
2026-04-23 22:43 32.91603 -111.48895 12642 ft 283 kts 323°
2026-04-23 22:43 32.93362 -111.50019 12367 ft 290 kts 328°
2026-04-23 22:43 32.95191 -111.50969 12111 ft 288 kts 332°
2026-04-23 22:43 32.97050 -111.51826 11885 ft 284 kts 333°
2026-04-23 22:44 32.98888 -111.52650 11627 ft 280 kts 333°
2026-04-23 22:44 33.00402 -111.53339 11418 ft 275 kts 332°
2026-04-23 22:44 33.02176 -111.54186 11189 ft 271 kts 331°
2026-04-23 22:44 33.03902 -111.55041 10940 ft 267 kts 331°
2026-04-23 22:45 33.05616 -111.55880 10702 ft 264 kts 332°
2026-04-23 22:45 33.07288 -111.56692 10495 ft 262 kts 332°
2026-04-23 22:45 33.08966 -111.57520 10271 ft 259 kts 332°
2026-04-23 22:45 33.10626 -111.58346 10034 ft 257 kts 332°
2026-04-23 22:46 33.12272 -111.59159 9792 ft 255 kts 332°
2026-04-23 22:46 33.13907 -111.59967 9532 ft 253 kts 333°
2026-04-23 22:46 33.15533 -111.60771 9276 ft 251 kts 333°
2026-04-23 22:46 33.17147 -111.61566 9019 ft 250 kts 332°
2026-04-23 22:47 33.18746 -111.62360 8777 ft 248 kts 333°
2026-04-23 22:47 33.20329 -111.63157 8555 ft 246 kts 332°
2026-04-23 22:47 33.21883 -111.63941 8301 ft 245 kts 333°
2026-04-23 22:47 33.23449 -111.64747 8048 ft 243 kts 331°
2026-04-23 22:48 33.24973 -111.65611 7808 ft 241 kts 330°
2026-04-23 22:48 33.26475 -111.66502 7564 ft 240 kts 330°
2026-04-23 22:48 33.27965 -111.67384 7330 ft 239 kts 330°
2026-04-23 22:48 33.29450 -111.68266 7087 ft 237 kts 329°
2026-04-23 22:49 33.30929 -111.69129 6840 ft 236 kts 329°
2026-04-23 22:49 33.32399 -111.70000 6595 ft 235 kts 329°
2026-04-23 22:49 33.33861 -111.70861 6350 ft 234 kts 330°
2026-04-23 22:49 33.35323 -111.71719 6097 ft 232 kts 329°
2026-04-23 22:50 33.36766 -111.72578 5852 ft 231 kts 329°
2026-04-23 22:50 33.38189 -111.73415 5583 ft 230 kts 329°
2026-04-23 22:50 33.39617 -111.74250 5337 ft 227 kts 327°
2026-04-23 22:50 33.40711 -111.75526 5094 ft 217 kts 297°
2026-04-23 22:51 33.41405 -111.77121 4860 ft 214 kts 290°
2026-04-23 22:51 33.41990 -111.78746 4621 ft 212 kts 290°
2026-04-23 22:51 33.42550 -111.80368 4368 ft 210 kts 290°
2026-04-23 22:51 33.42882 -111.82035 4155 ft 201 kts 264°
2026-04-23 22:52 33.42818 -111.83579 4211 ft 177 kts 266°
2026-04-23 22:52 33.42789 -111.85066 3841 ft 180 kts 268°
2026-04-23 22:52 33.42790 -111.86517 3488 ft 170 kts 269°
2026-04-23 22:52 33.42813 -111.87916 3088 ft 165 kts 269°
2026-04-23 22:53 33.42833 -111.89228 2893 ft 152 kts 269°
2026-04-23 22:53 33.42833 -111.90465 2714 ft 144 kts 270°
2026-04-23 22:53 33.42846 -111.91623 2496 ft 135 kts 268°
2026-04-23 22:53 33.42848 -111.92746 2371 ft 136 kts 268°
2026-04-23 22:54 33.42839 -111.93891 2173 ft 143 kts 268°
2026-04-23 22:54 33.42847 -111.95094 1962 ft 146 kts 271°
2026-04-23 22:54 33.42853 -111.96309 1760 ft 145 kts 273°
2026-04-23 22:54 33.42883 -111.97499 1630 ft 142 kts 270°
2026-04-23 22:55 33.42883 -111.98679 1439 ft 142 kts 269°
2026-04-23 22:55 33.42885 -111.99842 1229 ft 138 kts 270°
2026-04-23 22:55 33.42885 -112.00737 1133 ft 122 kts 270°
2026-04-23 22:55 33.42887 -112.01565 1119 ft 76 kts 270°
2026-04-23 22:56 33.42889 -112.01996 1121 ft 37 kts 276°
2026-04-23 22:56 33.42967 -112.02151 1119 ft 10 kts 15°
2026-04-23 22:56 33.42993 -112.02117 1118 ft 6 kts 83°
2026-04-23 22:56 33.42995 -112.02010 1118 ft 23 kts 89°
2026-04-23 22:57 33.42994 -112.01815 1122 ft 24 kts 90°
2026-04-23 22:57 33.42994 -112.01616 1124 ft 24 kts 90°
2026-04-23 22:57 33.42994 -112.01470 1125 ft 24 kts 89°
2026-04-23 22:57 33.42994 -112.01269 1125 ft 24 kts 90°
2026-04-23 22:58 33.42994 -112.01136 1124 ft 23 kts 89°
2026-04-23 22:58 33.42994 -112.00959 1122 ft 20 kts 89°
2026-04-23 22:58 33.42993 -112.00808 1125 ft 17 kts 90°
2026-04-23 22:58 33.42994 -112.00678 1124 ft 14 kts 88°
2026-04-23 22:59 33.43052 -112.00624 1124 ft 15 kts
2026-04-23 22:59 33.43143 -112.00622 1132 ft 16 kts
2026-04-23 22:59 33.43203 -112.00546 1118 ft 13 kts 67°
2026-04-23 22:59 33.43249 -112.00470 1124 ft 11 kts 15°
2026-04-23 23:00 33.43318 -112.00467 1118 ft 9 kts
2026-04-23 23:00 33.43364 -112.00467 1119 ft 8 kts 360°
2026-04-23 23:00 33.43413 -112.00467 1123 ft 12 kts 360°
2026-04-23 23:00 33.43513 -112.00467 1122 ft 19 kts 360°
2026-04-23 23:01 33.43542 -112.00467 1119 ft 18 kts 360°
2026-04-23 23:01 33.43550 -112.00467 1118 ft 18 kts 360°
2026-04-23 23:01 33.43569 -112.00467 1119 ft 18 kts 360°
2026-04-23 23:02 33.43574 -112.00467 1119 ft 17 kts 360°
2026-04-23 23:03 33.43690 -112.00467 1118 ft 28 kts
2026-04-23 23:03 33.43874 -112.00467 1118 ft 21 kts
2026-04-23 23:04 33.43970 -112.00426 1113 ft 13 kts 73°
2026-04-23 23:04 33.43974 -112.00331 1119 ft 10 kts 89°
2026-04-23 23:04 33.43973 -112.00260 1119 ft 7 kts 91°
2026-04-23 23:04 33.43973 -112.00171 1122 ft 15 kts 90°
2026-04-23 23:05 33.43974 -112.00023 1120 ft 18 kts 90°
2026-04-23 23:05 33.43972 -111.99912 1125 ft 15 kts 91°
2026-04-23 23:05 33.43966 -111.99853 1125 ft 11 kts 118°
2026-04-23 23:05 33.43924 -111.99828 1119 ft 6 kts 157°
2026-04-23 23:06 33.43876 -111.99784 1114 ft 9 kts 165°
2026-04-23 23:06 33.43855 -111.99781 1120 ft 8 kts 178°
2026-04-23 23:06 33.43828 -111.99780 1120 ft 7 kts 178°
2026-04-23 23:06 33.43776 -111.99780 1118 ft 12 kts 180°
2026-04-23 23:07 33.43695 -111.99782 1120 ft 10 kts 188°
2026-04-23 23:07 33.43654 -111.99826 1120 ft 7 kts 261°
2026-04-23 23:07 33.43652 -111.99871 1116 ft 0 kts 270°